Content
SEND FEEDBACK

Daily
Averages
Monthly
Summary
United States of America

ASATDAS, GUAM


Home > North America > United States > Guam
Elevation: 612 feet     Latitude: 13 35N     Longitude: 144 56E

WEATHER
 
SELECT A DAY
Number of Records: 209,044;   Date Range: 1/1/95 - 7/29/14
 
SHARE

PRINT THIS DATA

[ ← Previous Day ]
WEATHER ALMANAC - JANUARY 16, 2013
[ Next Day → ]
[ °C ]   °F
Weather ElementAverageHighLow
Temperature80.5 °F87.1 °F (12:54 pm)75 °F (5:54 am)
Dewpoint72.8 °F75.9 °F (10:54 pm)70 °F (2:54 am)
Humidity78.2 %96 % (11:54 pm)59 % (1:54 pm)
Barometer29.89 in29.93 in (8:54 am)29.83 in (1:54 pm)
Wind Speed8.1 mph15 mph (2:54 pm)
Wind Gust21.9 mph (10:54 am)
Weather ElementAverage
Visibility9.8 mi
Wind DirectionENE (61.5 °)

Weather ElementTotal
Precipitation0.02 in
Cooling Degree Days16.1 (Base 65)
Growing Degree Days31.1 (Base 50)
Averaged from 26 records on January 16, 2013
WEATHER CONDITIONS BREAKOUT
WIND DIRECTION BREAKOUT
WEATHER BY HOUR - JANUARY 16, 2013
[ °C ]   °F
Local TimeTemperatureDewpointHumidityBarometerVisibilityWind DirectionWind SpeedGust SpeedPrecipitationEventsConditions
1:54 AM77.0 °F71.1 °F82 %29.87 in10.0 miENE (70°)4.6 mphClear
2:54 AM77.0 °F70.0 °F79 %29.86 in10.0 miENE (70°)8.1 mphClear
3:54 AM77.0 °F70.0 °F79 %29.87 in10.0 miENE (70°)6.9 mphPartly Cloudy
4:54 AM77.0 °F70.0 °F79 %29.88 in10.0 miENE (60°)5.8 mphPartly Cloudy
5:54 AM75.0 °F71.1 °F87 %29.89 in10.0 miNE (50°)4.6 mphPartly Cloudy
6:54 AM75.0 °F71.1 °F87 %29.90 in10.0 miENE (60°)5.8 mphScattered Clouds
7:54 AM79.0 °F72.0 °F79 %29.92 in10.0 miNE (50°)5.8 mphScattered Clouds
8:54 AM82.0 °F72.0 °F71 %29.93 in10.0 miENE (70°)6.9 mphClear
9:54 AM84.0 °F71.1 °F65 %29.92 in10.0 miEast (80°)11.5 mphPartly Cloudy
10:54 AM86.0 °F71.1 °F61 %29.90 in10.0 miENE (70°)11.5 mph21.9 mphScattered Clouds
11:54 AM86.0 °F71.1 °F61 %29.88 in10.0 miENE (60°)11.5 mphScattered Clouds
12:54 PM87.1 °F72.0 °F61 %29.85 in10.0 miEast (80°)9.2 mph18.4 mphScattered Clouds
1:54 PM87.1 °F71.1 °F59 %29.83 in10.0 miEast (80°)12.7 mph21.9 mphScattered Clouds
2:54 PM84.9 °F73.0 °F67 %29.83 in10.0 miNE (50°)15.0 mphMostly Cloudy
3:54 PM84.0 °F73.0 °F69 %29.84 in10.0 miENE (60°)13.8 mphMostly Cloudy
4:54 PM82.0 °F73.9 °F76 %29.86 in10.0 miENE (70°)10.4 mph0.00 inOvercast
5:54 PM82.0 °F73.9 °F76 %29.87 in10.0 miENE (60°)9.2 mphPartly Cloudy
6:54 PM80.1 °F75.0 °F85 %29.89 in10.0 miENE (60°)5.8 mphClear
7:54 PM80.1 °F75.0 °F85 %29.90 in10.0 miNE (50°)5.8 mphPartly Cloudy
8:54 PM79.0 °F73.9 °F84 %29.91 in10.0 miNE (50°)5.8 mphClear
9:54 PM79.0 °F73.9 °F84 %29.91 in10.0 miENE (60°)4.6 mphPartly Cloudy
10:28 PM78.8 °F75.2 °F89 %29.92 in10.0 miNE (50°)3.5 mphMostly Cloudy
10:38 PM78.8 °F75.2 °F89 %29.92 in4.0 miENE (70°)9.2 mph0.00 inRainHeavy Rain
10:54 PM78.1 °F75.9 °F93 %29.90 in10.0 miNE (50°)9.2 mph0.02 inOvercast
11:05 PM78.8 °F75.2 °F89 %29.92 in10.0 miNE (50°)6.9 mphMostly Cloudy
11:54 PM77.0 °F75.9 °F96 %29.90 in10.0 miNE (50°)5.8 mphClear
Hourly data recorded from PGUM, located miles away from Asatdas, Guam







STORIES FROM OUR PARTNERS